Regional Weather Roundup
Issued by NWS

Home | Current Version | Previous Version | Graphics & Text | Print | Product List | Glossary On
Versions: 1 2 3 4 5 6 7 8 9 10 11 12 13 14 15 16 17 18 19 20 21 22 23 24 25 26 27 28 29 30 31 32 33 34 35 36 37 38 39 40 41 42 43 44 45 46 47 48 49 50
000
ASUS43 KBIS 241602
RWRND

NORTH DAKOTA REGIONAL WEATHER ROUNDUP
NATIONAL WEATHER SERVICE BISMARCK ND
1100 AM CDT MON JUL 24 2017

NOTE: "FAIR" INDICATES FEW OR NO CLOUDS BELOW 12,000 FEET WITH NO
SIGNIFICANT WEATHER AND/OR OBSTRUCTIONS TO VISIBILITY.


NDZ001>003-009>011-017-241700-
NORTHWEST NORTH DAKOTA

CITY           SKY/WX    TMP DP  RH WIND       PRES   REMARKS
WILLISTON      SUNNY     87  54  32 SW12      29.77R
MINOT          SUNNY     85  56  37 S21G36    29.78F
MINOT AFB      SUNNY     85  56  37 S23G31    29.76F
$$

NDZ018>021-031>035-040>046-241700-
SOUTHWEST NORTH DAKOTA

CITY           SKY/WX    TMP DP  RH WIND       PRES   REMARKS
BISMARCK       CLOUDY    74  62  66 SE13      29.84F
DICKINSON      SUNNY     83  58  42 S17       29.83S
GARRISON         N/A     79  61  53 S15       29.82F
HETTINGER ARPT SUNNY     80  57  45 S16G23    29.88S
$$

NDZ004>008-012>016-024-026-027-054-241700-
NORTHEAST NORTH DAKOTA

CITY           SKY/WX    TMP DP  RH WIND       PRES   REMARKS
GRAND FORKS    CLOUDY    75  64  68 S16       29.94F
GRND FRKS AFB  CLOUDY    74  63  69 S15       29.95F
DEVILS LAKE    CLOUDY    76  62  62 S16       29.90F
$$

NDZ022-023-025-028>030-036>039-047>053-241700-
SOUTHEAST NORTH DAKOTA

CITY           SKY/WX    TMP DP  RH WIND       PRES   REMARKS
FARGO          MOSUNNY   73  63  68 S15       29.98F
JAMESTOWN      CLOUDY    75  62  64 S17       29.91F
$$





USA.gov is the U.S. government's official web portal to all federal, state and local government web resources and services.